Terminal Aerodrome Forecast
Issued by NWS Oklahoma City, OK

Home | Current Version | Previous Version | Text Only | Print | Product List | Glossary On
Versions: 1 2 3 4 5 6 7 8 9 10 11 12 13 14 15 16 17 18 19 20 21 22 23 24 25 26 27 28 29 30
000
FTUS44 KOUN 172341
TAFOUN
TAF
KOUN 172341Z 1800/1824 06005KT P6SM BKN300
     FM180200 13005KT P6SM BKN250
     FM181400 17012G20KT P6SM BKN008
     FM181600 18016G23KT P6SM BKN015
     FM181800 18017G24KT P6SM BKN025=

USA.gov is the U.S. government's official web portal to all federal, state and local government web resources and services.